Find JD2

NORAD ID: 14729 Int'l Des: 1984-012 Owner: NRO/NRL Country: US operational
LEO

リアルタイム位置

3D地球を読み込み中...

JD2について

説明を読み込み中...

次回通過

Passes for default location (London). Set your location on the main map for personalized predictions.

高度履歴

Loading altitude history...

軌道要素

1 14729U 84012D 26104.62110672 .00002405 00000-0 29440-3 0 9999
2 14729 63.3059 210.0868 0749251 127.3987 239.7705 13.75793930335169
Epoch: Apr 14, 2026 • Age: 15 hours

現在のステータス

高度 1316.2 km
速度 7.04 km/s
衛星直下点 -60.13°S, 155.03°E
打ち上げ日 Feb 5, 1984
運用期間 42.1 years
タイプ other

技術仕様

分類 Payload
質量 200.00 kg
乾燥質量 200.00 kg
総質量 200.00 kg
長さ 0.90 m
直径 0.40 m
スパン 10.00 m
形状 Box + Ant
製造者 MM
バスタイプ NOSS SSU
フェーズステータス In Orbit
所有者/国 NRO/NRL/US

Most Searched